Location: Bonaustraße
(48.4603°N, 11.9280°E)
Time: 21:16:53
(UTC+02:00)

AO-92 - Pass Details

Date: 29 July 2021
Orbit: 484 x 494 km, 97.4° (Epoch: 17 September)

Event Time Altitude Azimuth Distance (km) Brightness Sun altitude
Exits shadow 23:59:18 19° 244° (WSW) 1,224 ? -20.7°
Maximum altitude 00:00:17 21° 267° (W) 1,148 ? -20.8°
Drops below altitude 10° 00:03:03 10° 317° (NW) 1,676 ? -20.9°
Sets 00:05:31 0° 334° (NNW) 2,562 ? -21.0°
